This demonstration page uses our WeatherBlox Daily Observations layout. Learn more.

Left ArrowRight Arrow

34.74481, -87.66753

Hourly Observations for June 28, 2019

Temp ( °F °C ) Dew Point ( °F °C ) Humidity (%) Winds ( mph kmh ) Pressure ( in mb ) Visibility ( mi km ) Precip ( " mm )
12:53 am 00:53 Clear 71 21.7 68 20 90 90 undefined N/A 30.16 1021 10 16 0.00 0.00
1:46 am 01:46 Mostly Clear 70 21.1 67 19.4 90 90 Calm 30.17 1022 10 16 0.00 0.00
1:53 am 01:53 Partly Cloudy 70 21.1 67 19.4 90 90 Calm 30.16 1021 10 16 0.00 0.00
2:00 am 02:00 Mostly Cloudy 70 21.1 68 20 93 93 Calm 30.17 1022 10 16 0.00 0.00
2:07 am 02:07 Partly Cloudy 70 21.1 68 20 93 93 Calm 30.17 1022 10 16 0.00 0.00
2:53 am 02:53 Mostly Clear 70 21.1 68 20 93 93 Calm 30.16 1021 10 16 0.00 0.00
3:53 am 03:53 Clear 69 20.6 67 19.4 93 93 Calm 30.15 1021 10 16 0.00 0.00
4:05 am 04:05 Partly Cloudy 68 20 66 18.9 93 93 Calm 30.16 1021 10 16 0.00 0.00
4:14 am 04:14 Mostly Cloudy 69 20.6 67 19.4 93 93 Calm 30.16 1021 10 16 0.00 0.00
4:44 am 04:44 Partly Cloudy 69 20.6 67 19.4 93 93 Calm 30.17 1022 10 16 0.00 0.00
4:53 am 04:53 Mostly Clear 69 20.6 66 18.9 90 90 Calm 30.17 1022 10 16 0.00 0.00
5:39 am 05:39 Mostly Cloudy 68 20 67 19.4 96 96 Calm 30.18 1022 10 16 0.00 0.00
5:53 am 05:53 Cloudy 69 20.6 67 19.4 93 93 W 3 6 30.18 1022 10 16 0.00 0.00
6:42 am 06:42 Cloudy 71 21.7 69 20.6 94 94 Calm 30.17 1022 10 16 0.00 0.00
6:53 am 06:53 Mostly Cloudy 71 21.7 69 20.6 94 94 Calm 30.18 1022 10 16 0.00 0.00
7:53 am 07:53 Mostly Cloudy 74 23.3 69 20.6 85 85 Calm 30.19 1023 10 16 0.00 0.00
8:07 am 08:07 Partly Cloudy 75 23.9 69 20.6 82 82 Calm 30.19 1022 10 16 0.00 0.00
8:48 am 08:48 Mostly Cloudy 75 24 70 21 83 83 E 5 7 30.19 1022 10 16 0.00 0.00
8:53 am 08:53 Mostly Sunny 76 24.4 69 20.6 79 79 E 5 7 30.19 1022 10 16 0.00 0.00
9:53 am 09:53 Sunny 79 26.1 68 20 69 69 Calm 30.17 1022 10 16 0.00 0.00
10:53 am 10:53 Sunny 83 28.3 69 20.6 63 63 S 3 6 30.17 1022 10 16 0.00 0.00
11:53 am 11:53 Mostly Sunny 86 30 70 21.1 59 59 SE 3 6 30.16 1021 10 16 0.00 0.00
12:53 pm 12:53 Partly Cloudy 89 31.7 68 20 50 50 ESE 9 15 30.14 1021 10 16 0.00 0.00
1:53 pm 13:53 Partly Cloudy with Nearby Thunderstorms 93 33.9 68 20 44 44 S 12 19 30.11 1020 10 16 0.00 0.00
2:11 pm 14:11 Mostly Sunny 93 33.9 68 20 44 44 SSE 13 20 30.09 1019 10 16 0.00 0.00
2:21 pm 14:21 Partly Cloudy with Nearby Thunderstorms 89 31.7 66 18.9 47 47 SW 12 19 30.10 1019 10 16 0.00 0.00
2:36 pm 14:36 Mostly Cloudy with Thunderstorms 85 29.4 69 20.6 59 59 W 15 24 30.12 1020 10 16 0.00 0.00
2:53 pm 14:53 Mostly Cloudy with Thunderstorms 77 25 65 18.3 66 66 W 22 35 30.14 1021 10 16 0.00 0.00
3:22 pm 15:22 Mostly Sunny 77 25 66 18.9 69 69 WSW 5 7 30.11 1020 10 16 0.00 0.03
3:53 pm 15:53 Sunny 79 26.1 69 20.6 72 72 WNW 3 6 30.11 1020 10 16 0.00 0.03
4:53 pm 16:53 Sunny 82 27.8 68 20 63 63 N 3 6 30.10 1019 10 16 0.00 0.00
6:53 pm 18:53 Mostly Sunny 82 27.8 69 20.6 65 65 Calm 30.11 1020 10 16 0.00 0.00
7:16 pm 19:16 Mostly Cloudy with Nearby Thunderstorms 80 26.7 65 18.3 60 60 ESE 15 24 30.14 1021 10 16 0.00 0.00

Powered by AerisWeather